SL-16 DEB, 22347

Orbit data source: Space-Track

SL-16 DEB, 22347 is space debris in LEO originally from a launch on Fri, 25 Dec 1992 UTC launched from the Tyuratam Missile And Space Complex (TTMTR). Debris objects in space refer to the collection of defunct objects orbiting the Earth. Examples of debris include non-operational satellites, rocket bodies, and fragments generated from explosions, collisions, or faulty payload assembly.

Loading next visibility...
SL-16 DEB details
Identifier
22347, 1992-093AL
Orbit
LEO
Last TLE update5 hours ago
Origin
Flag of CISRVSN RF (CIS)
ManufacturerUnknown
MissionSpacecraft
Bus & MotorUnknown
MassUnknown
Launch date (UTC)
1992-12-25 (32 years ago)
Launch vehicleUnknown
Launch site
Tyuratam Missile And Space Complex (TTMTR)
Object type
Payload
Rocket body
Debris
Shape & HBRUnknown
Radar Cross SectionSmall (<0.1 m²)

Expand to show TLE details & history

TLE from 5 hours ago
0 SL-16 DEB
1 22347U 92093AL  24361.52204039  .00005872  00000-0  34216-2 0  9992
2 22347  70.8375 122.6741 0156844  93.3670 351.9633 14.02907586614765
Epoch: 2024-12-26T12:31Z
Definitive object data (Epoch: 2024-12-26T12:31:44.289Z)
Latitude70.33355°
Longitude-85.48983°
Altitude782.584 km
Speed7.527 km/s
True Right ascension13h 11m 46s
True Declination70° 13' 29"
Sunlit
Object was in daylight at TLE epoch
Visualization TLE readout
Latitude3.40022°
Longitude-159.99497°
Altitude882.732 km
Speed7.413 km/s
Apparent Right ascension06h 48m 51s
Apparent Declination-18° 29' 26"
Sunlit
Object is in full shadow
Visualization observer readout
Local Sidereal Time16:39:17
Azimuth298.044° NW
Elevation-54.858°
Doppler factor1
Orbital elements
Apogee altitude995.562 km
Perigee altitude767.83 km
Semi-major axis7,259.833 km
Eccentricity0.0156844
Inclination70.8375°
RAAN122.6741°
Arg. of periapsis93.367°
True anomaly351.70705°
Mean anomaly351.9633°
Eccentric anomaly351.83568°
Mean motion3.50876 °/min
BSTAR0.0034216
Orbital period102.6 mins
Loading maneuver chart data...
Loading historical data...
Loading historical data...
Loading historical data...
Loading historical data...
Loading historical data...
Loading historical data...
Loading historical data...

SL-16 DEB Visibility forecast

Observer location: undefined°, undefined

Span
Click to sort rows by Start time (UTC) header in descending order
Start Az.
Max El. time (UTC)
Max El. Az.
Max El.
End time (UTC)
End Az.
4 mins2024-12-26 17:48:59.235Z23.724° NE2024-12-26 17:50:59.235Z46.572° ENE12.498°2024-12-26 17:52:59.235Z69.7° E
9 mins2024-12-26 19:32:59.235Z337.542° N2024-12-26 19:36:59.235Z132.668° SE44.905°2024-12-26 19:41:59.235Z157.403° SSE
8 mins2024-12-27 08:46:59.235Z159.848° S2024-12-27 08:50:59.235Z107.086° ESE26.444°2024-12-27 08:54:59.235Z49.777° ENE
8 mins2024-12-27 10:31:59.235Z241.309° WSW2024-12-27 10:35:59.235Z301.59° NW29.509°2024-12-27 10:39:59.235Z1.429° NNE
|